Temp
10 10 10 11 11 11 11 11 11 11 11 12 12 12 12 13 13 13 13 15 15 18 17 16 16 17 17 18 19 18 18 18 20 19 19 18 17 17 17 18 19 19 19 19 19 19 18 16 19 19 17 17 17 15
9 10 10 10 11 11 10 11 11 11 11 11 12 12 12 12 13 13 13 15 15 16 17 15 15 15 15 16 17 17 17 17 18 18 18 18 16 17 17 16 17 16 18 17 17 16 16 16 16 15 14 16 16 15
9 9 10 10 11 11 11 10 10 11 10 11 11 11 12 12 12 13 13 14 15 17 16 16 16 15 15 15 15 17 16 15 16 15 18 18 16 17 16 17 17 16 14 17 16 17 16 15 15 14 14 15 14 13
9 9 10 10 11 11 11 10 10 10 10 10 11 11 12 12 12 13 13 14 14 16 19 17 15 15 15 14 15 15 15 14 14 15 17 18 17 15 17 17 17 17 16 17 16 16 16 15 14 14 13 13 13 12
9 10 10 10 10 10 11 10 10 10 10 10 11 11 11 12 12 12 13 13 14 15 19 18 15 14 14 14 14 14 14 15 16 17 18 18 16 16 16 17 18 17 18 17 16 16 15 14 13 13 14 13 12 12
10 10 10 10 9 9 10 10 10 10 9 10 11 11 11 12 12 12 13 13 13 15 16 18 15 15 14 14 14 14 14 14 15 16 16 14 11 14 16 15 16 14 14 14 15 14 14 13 13 13 13 13 12 12
10 10 9 9 8 7 8 7 9 9 9 10 10 11 11 12 12 12 14 12 13 14 16 18 18 15 14 14 14 15 14 14 15 14 14 15 14 12 15 14 15 13 13 12 13 13 13 13 13 13 13 12 12 12
9 8 8 7 6 6 7 6 8 8 9 9 10 10 11 11 11 11 11 12 13 13 15 18 18 16 14 16 16 14 15 14 13 14 13 14 12 13 11 15 14 13 12 12 12 13 14 12 12 13 13 13 13 13
8 8 7 6 6 6 6 6 7 8 9 10 10 10 10 10 11 12 12 12 13 13 16 17 18 18 14 16 15 14 14 16 13 15 14 13 11 8 14 15 13 13 13 13 12 12 12 13 12 12 13 13 13 13
8 7 7 6 6 5 5 6 7 8 9 10 10 10 12 11 11 12 12 12 13 14 14 17 17 18 16 16 16 16 15 16 15 15 12 14 13 14 13 13 13 13 13 13 13 13 13 13 12 12 12 12 12 12
7 7 6 6 7 6 6 7 8 9 9 10 10 11 11 11 11 12 14 15 15 16 16 17 17 18 14 17 17 15 16 16 14 16 15 16 16 16 14 12 12 12 12 13 13 13 12 12 12 12 11 11 11 11
7 6 7 7 7 7 7 8 9 9 9 10 10 11 11 11 13 14 15 15 15 17 16 16 16 17 14 14 16 15 16 15 15 14 15 14 18 15 14 13 12 12 12 12 12 12 12 12 11 11 11 11 11 10
6 6 7 7 7 7 8 8 9 9 10 10 10 11 12 12 11 14 14 16 17 16 15 14 15 16 14 15 16 16 15 16 15 15 14 17 16 15 14 13 13 12 12 12 12 11 11 11 11 11 11 10 10 9
6 6 7 7 6 7 8 9 9 9 10 10 12 7 13 14 15 17 17 18 17 17 16 16 16 17 16 16 16 16 16 15 15 15 16 19 17 15 14 14 13 13 12 12 12 12 11 11 10 10 10 10 9 9
6 6 6 6 6 7 8 8 9 9 10 11 12 11 14 15 15 15 15 15 15 16 16 16 17 17 17 16 17 16 14 15 16 17 19 19 17 16 14 14 13 13 13 12 12 12 11 11 10 9 8 8 8 7
6 6 6 6 6 7 8 8 9 9 9 10 11 14 15 15 16 16 15 16 15 15 16 17 17 17 17 18 16 16 16 16 18 19 18 17 15 15 14 14 13 13 13 13 12 11 10 10 9 9 8 7 7 7
6 6 7 6 6 7 8 8 9 8 11 12 13 13 14 14 16 16 15 16 15 15 18 18 17 17 18 17 17 18 17 19 19 19 18 17 15 15 15 13 13 12 12 12 11 10 10 9 8 8 7 7 7 6
6 6 6 7 7 7 7 8 8 10 11 12 13 15 14 14 15 15 14 13 14 16 18 18 18 17 17 17 18 19 18 18 18 17 17 16 17 16 15 14 13 11 11 11 10 9 8 8 8 8 7 6 6 5
6 6 6 6 7 7 7 8 8 11 12 13 13 13 13 14 14 13 14 13 14 15 16 16 17 18 18 19 19 19 18 18 18 17 16 16 16 16 15 12 11 10 10 9 9 9 9 8 9 8 7 6 7 7
6 5 6 6 7 7 8 9 8 10 13 14 12 13 13 14 15 13 13 14 13 14 15 17 18 18 19 18 18 18 17 17 15 16 17 16 15 15 15 13 12 11 9 9 9 9 8 8 8 7 7 7 7 7
5 5 6 6 6 7 7 9 10 11 12 13 13 13 14 14 14 14 14 13 13 15 16 17 17 18 18 17 16 15 15 14 15 15 16 15 14 13 13 11 9 10 8 8 8 8 8 8 7 7 7 6 7 7
5 5 6 6 6 7 7 9 10 11 11 13 13 13 14 15 15 15 15 14 15 16 16 17 17 17 16 15 15 13 13 14 13 13 13 13 12 11 10 9 10 9 8 8 7 8 8 7 7 7 7 7 6 6
5 5 6 6 6 7 8 8 10 12 13 14 13 14 15 15 15 13 15 16 16 16 16 15 14 15 14 13 12 12 12 11 12 13 12 12 12 10 9 9 9 8 7 6 6 7 7 7 7 7 7 6 7 7
5 6 6 6 7 8 9 10 10 11 12 13 14 14 15 15 12 14 16 17 17 14 13 13 13 14 14 13 13 13 12 12 12 12 11 10 9 9 9 9 7 6 7 6 6 7 7 7 7 7 7 7 7 8
6 6 6 5 9 9 12 13 13 13 13 14 14 15 15 13 14 15 16 16 15 14 14 13 13 13 13 13 13 13 12 11 12 12 11 9 9 8 7 6 5 5 6 6 6 6 7 7 7 7 8 8 8 8
5 8 7 11 11 12 11 13 13 13 14 14 14 14 13 14 15 14 15 14 14 14 13 13 13 12 12 12 12 12 12 10 10 11 10 9 9 8 8 6 5 5 6 7 7 7 8 8 8 8 8 8 8 8
6 10 9 9 10 11 12 12 12 12 13 13 14 14 14 14 14 15 14 12 13 12 11 11 11 11 11 11 10 8 9 9 9 10 9 9 9 9 9 9 6 7 6 7 8 9 9 9 9 9 9 9 8 8
9 9 10 11 11 10 12 13 13 14 14 14 14 14 14 15 15 14 13 11 11 11 11 10 10 9 9 9 9 8 8 9 9 9 9 8 8 8 7 8 8 7 9 8 9 9 10 10 10 9 9 9 9 9
8 9 9 10 11 10 11 12 14 14 13 14 14 15 15 13 12 12 11 11 12 10 11 11 10 9 9 8 8 8 8 7 7 7 7 7 7 8 8 8 9 9 8 9 9 9 10 10 10 10 9 9 9 9
8 8 10 11 12 12 13 13 12 13 13 13 13 13 14 12 11 11 12 11 11 11 10 10 10 11 11 11 10 9 9 9 9 10 10 10 10 9 9 9 9 9 9 9 9 9 9 9 9 9 9 9 9 9
9 9 10 11 12 12 12 12 13 13 13 13 13 12 14 12 11 11 11 11 11 10 11 11 11 11 11 11 11 11 10 9 9 9 9 9 9 9 9 9 9 9 9 10 10 9 9 9 9 9 9 9 9 9
8 8 10 11 12 12 11 12 13 13 13 12 13 12 12 12 13 12 11 12 11 12 11 11 11 11 10 10 10 10 10 10 10 9 8 9 9 9 9 9 9 9 9 10 10 10 10 9 10 10 10 9 9 9
10 10 11 11 12 13 12 13 13 14 14 13 13 12 12 13 14 13 12 12 11 12 11 11 10 10 10 10 10 10 9 10 9 10 9 9 8 9 9 9 9 9 9 10 10 10 9 9 9 9 9 9 9 9
Height
1538 1535 1532 1529 1526 1523 1520 1519 1517 1516 1517 1517 1516 1515 1515 1515 1514 1514 1515 1514 1514 1515 1518 1519 1520 1519 1518 1517 1512 1515 1514 1513 1509 1509 1509 1510 1514 1516 1515 1510 1508 1508 1509 1507 1504 1507 1513 1515 1510 1511 1517 1515 1514 1514
1532 1530 1526 1524 1521 1518 1516 1514 1513 1512 1514 1514 1514 1513 1514 1514 1514 1514 1515 1513 1514 1518 1518 1518 1519 1520 1520 1520 1518 1516 1515 1514 1513 1510 1513 1513 1518 1516 1514 1519 1516 1519 1513 1518 1517 1519 1521 1521 1521 1520 1518 1516 1516 1516
1526 1524 1520 1517 1514 1512 1510 1509 1508 1507 1510 1511 1512 1512 1512 1513 1513 1514 1514 1514 1515 1517 1520 1519 1519 1520 1520 1519 1518 1516 1515 1516 1516 1515 1512 1512 1515 1515 1515 1512 1513 1516 1520 1515 1518 1521 1522 1523 1522 1520 1518 1517 1518 1519
1519 1517 1514 1511 1508 1505 1504 1503 1503 1503 1506 1508 1509 1509 1510 1511 1511 1512 1513 1514 1515 1516 1513 1517 1519 1520 1519 1520 1518 1517 1516 1515 1516 1516 1513 1510 1510 1518 1511 1512 1511 1512 1517 1513 1517 1520 1522 1523 1523 1523 1522 1522 1519 1523
1513 1510 1507 1504 1501 1499 1498 1498 1498 1500 1502 1504 1506 1507 1508 1509 1510 1511 1512 1513 1513 1517 1512 1514 1519 1520 1520 1520 1519 1518 1517 1517 1515 1514 1511 1510 1516 1517 1515 1514 1508 1513 1510 1511 1516 1520 1521 1525 1526 1525 1525 1525 1524 1524
1506 1503 1501 1498 1495 1492 1491 1492 1493 1496 1499 1502 1504 1505 1506 1508 1509 1511 1514 1512 1511 1512 1515 1512 1516 1518 1519 1519 1519 1519 1518 1517 1516 1513 1514 1518 1520 1519 1513 1513 1513 1516 1518 1519 1520 1522 1524 1526 1527 1527 1527 1526 1526 1526
1500 1497 1494 1492 1490 1488 1487 1488 1490 1493 1497 1500 1502 1503 1505 1506 1507 1511 1510 1510 1511 1511 1514 1511 1511 1516 1518 1518 1518 1518 1518 1517 1516 1516 1517 1516 1518 1519 1515 1515 1513 1516 1518 1520 1521 1523 1525 1526 1527 1528 1528 1527 1527 1528
1495 1492 1490 1487 1485 1484 1485 1487 1488 1492 1495 1498 1501 1502 1503 1504 1507 1509 1508 1509 1510 1512 1513 1507 1506 1513 1515 1513 1513 1516 1515 1516 1517 1517 1518 1517 1519 1519 1519 1510 1513 1516 1518 1520 1521 1522 1523 1526 1527 1527 1528 1528 1529 1530
1490 1488 1487 1483 1480 1480 1482 1485 1488 1491 1494 1497 1500 1502 1503 1505 1508 1508 1507 1508 1509 1513 1507 1505 1500 1503 1511 1512 1514 1515 1515 1510 1517 1514 1516 1519 1518 1520 1508 1508 1510 1513 1515 1517 1520 1522 1523 1524 1525 1526 1526 1527 1528 1530
1486 1486 1484 1482 1479 1478 1480 1484 1487 1491 1494 1497 1500 1502 1503 1503 1504 1506 1508 1509 1510 1508 1507 1502 1500 1501 1509 1509 1509 1512 1512 1510 1509 1511 1516 1513 1508 1505 1506 1507 1509 1511 1514 1515 1517 1520 1521 1522 1523 1524 1525 1526 1527 1528
1484 1484 1482 1481 1479 1479 1481 1484 1488 1491 1494 1496 1499 1499 1500 1501 1504 1505 1504 1504 1502 1501 1497 1497 1498 1500 1507 1504 1503 1511 1508 1510 1511 1507 1508 1502 1498 1497 1502 1505 1508 1510 1512 1514 1516 1518 1519 1520 1522 1523 1524 1525 1526 1527
1482 1481 1480 1480 1480 1480 1482 1485 1488 1490 1493 1495 1496 1497 1500 1502 1502 1500 1497 1497 1495 1489 1491 1493 1497 1498 1505 1507 1505 1510 1506 1510 1505 1509 1506 1503 1491 1496 1499 1502 1505 1509 1512 1514 1516 1517 1518 1519 1521 1522 1523 1524 1524 1525
1480 1478 1479 1479 1479 1480 1483 1485 1487 1490 1492 1495 1496 1496 1496 1498 1500 1493 1489 1485 1483 1484 1487 1490 1495 1498 1504 1506 1505 1506 1506 1503 1507 1504 1502 1492 1491 1494 1497 1500 1503 1505 1508 1511 1513 1515 1517 1518 1519 1520 1521 1522 1523 1524
1478 1475 1477 1478 1478 1480 1482 1484 1487 1489 1492 1493 1492 1497 1489 1485 1481 1476 1475 1473 1478 1479 1482 1485 1491 1494 1498 1501 1501 1502 1502 1504 1501 1498 1492 1483 1488 1491 1494 1497 1500 1502 1505 1507 1510 1512 1514 1515 1516 1517 1518 1519 1521 1522
1477 1475 1475 1476 1478 1479 1482 1484 1486 1488 1490 1490 1489 1487 1478 1475 1475 1477 1477 1479 1481 1480 1482 1485 1490 1491 1494 1497 1498 1499 1502 1498 1492 1486 1479 1481 1485 1488 1490 1493 1495 1498 1501 1504 1506 1508 1510 1512 1513 1514 1515 1516 1518 1518
1475 1476 1475 1475 1476 1479 1481 1483 1485 1488 1489 1488 1484 1477 1473 1474 1472 1473 1475 1476 1479 1480 1481 1482 1485 1486 1488 1487 1493 1491 1489 1486 1477 1479 1480 1482 1483 1484 1485 1487 1490 1493 1496 1499 1502 1505 1507 1508 1510 1512 1513 1514 1515 1515
1473 1474 1475 1475 1476 1479 1481 1484 1486 1487 1486 1481 1475 1473 1472 1472 1470 1469 1473 1474 1477 1479 1476 1477 1480 1482 1482 1483 1482 1479 1478 1473 1475 1476 1477 1479 1479 1479 1480 1482 1484 1488 1491 1494 1497 1500 1503 1505 1507 1509 1511 1513 1513 1513
1470 1472 1474 1475 1477 1479 1480 1482 1485 1483 1479 1474 1472 1468 1470 1471 1470 1470 1473 1474 1476 1475 1473 1472 1472 1476 1474 1474 1471 1471 1474 1474 1475 1475 1476 1475 1474 1474 1475 1476 1478 1482 1486 1490 1494 1497 1499 1501 1504 1507 1508 1508 1510 1511
1467 1469 1472 1474 1476 1478 1479 1480 1480 1476 1471 1469 1468 1468 1468 1467 1468 1470 1471 1472 1474 1474 1474 1473 1471 1467 1467 1467 1467 1467 1468 1469 1469 1471 1471 1470 1469 1470 1470 1474 1477 1478 1481 1485 1490 1493 1497 1499 1501 1503 1505 1507 1509 1510
1464 1466 1469 1473 1474 1476 1477 1476 1475 1473 1467 1464 1465 1464 1464 1463 1464 1465 1466 1469 1471 1472 1470 1466 1463 1462 1462 1462 1463 1463 1465 1466 1466 1466 1465 1464 1463 1463 1464 1466 1468 1472 1481 1482 1487 1490 1493 1496 1498 1500 1502 1505 1507 1509
1461 1464 1467 1471 1472 1473 1474 1471 1469 1467 1464 1463 1460 1461 1459 1459 1460 1461 1462 1465 1467 1463 1460 1460 1460 1459 1459 1459 1460 1460 1461 1461 1460 1460 1458 1458 1457 1457 1457 1459 1463 1464 1473 1481 1484 1488 1491 1494 1496 1498 1500 1503 1506 1507
1459 1462 1464 1468 1469 1471 1470 1467 1466 1465 1464 1458 1459 1458 1455 1454 1454 1455 1456 1459 1456 1454 1455 1455 1454 1455 1456 1456 1456 1455 1454 1452 1451 1451 1449 1449 1450 1450 1450 1452 1458 1460 1464 1475 1480 1485 1489 1493 1494 1497 1499 1501 1504 1506
1458 1460 1463 1465 1467 1467 1466 1464 1464 1459 1457 1453 1454 1453 1450 1450 1450 1452 1451 1448 1448 1448 1450 1452 1451 1450 1450 1450 1449 1448 1448 1446 1446 1446 1445 1445 1445 1446 1445 1446 1448 1451 1460 1469 1473 1481 1485 1490 1492 1495 1497 1499 1501 1503
1458 1459 1460 1461 1463 1462 1461 1458 1456 1454 1452 1451 1448 1446 1444 1445 1448 1447 1442 1440 1442 1445 1445 1445 1446 1447 1447 1446 1445 1444 1444 1442 1441 1440 1440 1440 1439 1439 1441 1443 1445 1448 1454 1461 1469 1476 1482 1485 1487 1490 1494 1496 1498 1499
1459 1459 1460 1459 1458 1458 1453 1449 1448 1448 1446 1444 1444 1442 1442 1444 1443 1441 1438 1438 1440 1441 1442 1443 1443 1443 1443 1442 1442 1441 1440 1439 1438 1438 1437 1435 1437 1438 1439 1440 1442 1446 1452 1460 1467 1473 1477 1481 1484 1487 1490 1492 1494 1495
1456 1455 1456 1450 1450 1451 1451 1444 1443 1443 1442 1441 1440 1440 1441 1441 1438 1437 1437 1440 1440 1441 1441 1441 1441 1440 1440 1439 1439 1438 1437 1436 1435 1435 1433 1433 1433 1433 1434 1438 1442 1445 1455 1458 1464 1468 1472 1476 1480 1483 1485 1488 1491 1492
1454 1449 1450 1451 1450 1450 1447 1445 1446 1445 1441 1439 1438 1438 1437 1436 1435 1439 1439 1439 1440 1439 1438 1438 1437 1436 1436 1435 1433 1432 1431 1431 1432 1432 1431 1431 1432 1433 1435 1436 1442 1449 1451 1457 1461 1465 1468 1472 1475 1479 1481 1484 1486 1489
1450 1449 1448 1448 1448 1448 1446 1443 1440 1438 1437 1438 1438 1435 1434 1433 1436 1438 1438 1437 1437 1436 1435 1434 1433 1431 1430 1430 1427 1427 1428 1428 1428 1429 1430 1431 1433 1435 1437 1440 1445 1448 1453 1456 1459 1462 1465 1468 1471 1474 1477 1480 1482 1485
1448 1447 1447 1446 1445 1446 1444 1442 1438 1437 1438 1437 1437 1434 1434 1436 1437 1436 1436 1435 1434 1434 1434 1433 1432 1431 1430 1428 1427 1427 1428 1429 1430 1431 1432 1433 1435 1437 1440 1442 1445 1447 1449 1452 1455 1458 1462 1464 1467 1470 1474 1477 1479 1481
1444 1444 1443 1442 1440 1439 1437 1437 1438 1438 1438 1438 1438 1436 1435 1435 1434 1434 1434 1434 1434 1433 1432 1431 1431 1432 1432 1432 1432 1432 1433 1433 1434 1434 1434 1434 1435 1437 1439 1442 1444 1446 1448 1450 1452 1455 1457 1461 1465 1468 1470 1472 1475 1477
1440 1440 1440 1439 1437 1437 1437 1437 1436 1436 1436 1436 1436 1436 1434 1434 1434 1433 1434 1433 1432 1431 1431 1431 1431 1432 1433 1433 1433 1433 1434 1434 1434 1434 1434 1435 1435 1436 1438 1440 1442 1444 1446 1449 1451 1453 1455 1458 1461 1464 1466 1468 1470 1472
1438 1438 1436 1434 1432 1432 1434 1434 1433 1433 1432 1432 1432 1432 1432 1433 1433 1435 1433 1432 1433 1433 1431 1431 1432 1432 1432 1432 1433 1433 1433 1434 1434 1434 1434 1434 1435 1436 1437 1439 1441 1442 1444 1446 1448 1450 1452 1454 1456 1458 1460 1462 1465 1467
1433 1432 1433 1432 1430 1428 1430 1431 1430 1429 1429 1428 1429 1429 1430 1431 1432 1434 1433 1433 1434 1433 1432 1432 1431 1430 1430 1431 1432 1433 1432 1433 1432 1432 1431 1431 1432 1435 1437 1439 1440 1442 1443 1445 1446 1448 1449 1450 1452 1453 1455 1457 1459 1462
Wind_Speed
26 27 28 27 27 25 21 17 11 9 8 6 4 3 2 2 1 1 1 3 4 0 5 3 2 0 1 3 4 4 6 5 4 3 3 2 3 1 4 3 5 6 3 4 4 5 5 16 2 6 7 7 9 6
28 28 28 28 27 24 22 17 13 9 10 7 5 4 4 4 3 3 1 3 7 2 5 6 6 6 4 3 7 2 5 2 3 1 2 2 2 3 4 4 2 3 3 2 4 3 5 8 7 7 6 3 6 4
29 29 28 28 27 25 23 19 14 10 11 9 7 5 5 5 4 4 4 3 6 7 7 7 6 3 4 4 4 5 2 0 2 1 1 1 3 2 3 2 2 4 2 2 6 5 7 9 11 13 8 2 7 7
29 29 28 27 27 23 21 17 14 11 12 10 8 7 6 6 6 5 3 5 7 3 4 5 6 3 4 4 6 2 1 3 3 2 3 2 2 2 1 2 6 3 5 5 5 6 6 8 12 11 11 9 12 8
26 27 27 26 24 22 19 15 12 12 13 11 8 7 6 6 6 6 5 4 9 4 2 5 7 5 3 4 6 6 2 2 4 5 4 1 1 3 2 2 4 5 1 3 2 6 3 6 6 8 9 9 9 11
24 25 24 21 20 20 14 14 11 14 14 11 9 8 6 6 6 7 4 6 7 9 4 4 3 8 6 4 4 5 4 2 1 3 2 2 1 3 2 2 3 3 3 3 5 6 7 7 6 6 7 6 5 7
21 19 17 19 18 14 6 9 11 15 14 11 9 8 6 7 11 6 2 5 10 9 5 4 5 6 8 5 2 0 3 2 1 2 2 2 4 3 2 3 7 7 7 8 8 9 7 5 4 5 5 5 7 7
15 13 15 18 14 9 8 9 13 14 13 10 9 6 6 8 11 4 4 4 9 4 3 3 3 6 10 8 5 2 1 1 2 1 2 2 2 2 3 6 9 11 10 8 7 5 6 6 4 3 3 3 4 5
12 11 14 13 10 9 9 9 13 15 12 11 8 8 7 7 6 6 5 4 8 5 4 4 4 3 7 5 2 3 2 2 2 2 2 2 1 4 6 8 14 16 13 12 10 8 6 5 5 4 4 4 4 4
9 8 8 6 5 5 9 13 14 14 12 10 12 4 5 6 7 7 2 4 6 7 4 6 3 4 7 6 5 2 2 1 2 2 2 4 4 9 7 8 12 14 11 13 12 10 7 6 6 5 5 4 5 5
9 7 3 2 1 3 11 15 14 12 11 11 6 4 5 9 6 4 5 7 7 5 9 11 11 5 5 6 3 2 1 0 2 4 3 2 3 6 11 12 13 14 12 11 8 7 7 7 6 6 6 6 5 4
8 5 4 3 4 5 12 14 12 12 8 7 6 7 8 4 5 5 5 4 6 5 7 12 12 6 6 3 4 4 1 2 2 3 3 2 3 6 13 15 16 15 13 12 10 8 7 6 6 5 4 4 3 2
9 6 6 6 7 10 11 12 11 11 9 9 5 7 5 5 2 6 8 5 4 8 10 12 11 8 5 5 1 3 4 2 1 3 3 5 6 9 13 15 18 17 16 14 12 11 9 9 8 8 8 7 7 5
7 5 7 8 8 10 11 10 11 13 9 4 6 1 5 5 5 5 6 4 4 6 16 18 12 6 4 6 3 3 2 3 3 3 4 4 10 12 14 16 18 20 20 18 15 13 12 11 9 9 9 10 9 8
5 5 5 10 8 8 9 8 10 12 4 4 5 4 7 8 4 4 5 4 6 11 18 14 9 6 6 4 4 2 4 4 4 4 3 5 9 13 16 18 19 20 21 20 17 14 12 11 9 8 8 8 7 6
5 3 2 5 12 11 9 7 6 7 3 4 6 6 6 6 9 8 8 9 10 15 16 12 5 4 5 3 5 7 3 4 3 4 5 5 7 12 16 18 19 19 19 19 17 15 13 10 8 9 8 7 6 5
9 5 5 5 9 8 12 10 5 3 5 5 7 9 10 6 5 6 5 10 13 16 8 7 6 6 4 4 4 4 4 3 3 3 4 7 11 12 15 17 18 19 19 19 18 16 13 10 10 10 8 6 4 3
11 9 9 9 7 6 8 9 6 5 7 10 8 7 8 9 7 5 6 8 13 16 14 7 4 7 5 6 6 5 7 9 10 12 14 12 13 14 16 20 20 21 21 20 18 16 14 13 11 10 9 7 7 8
11 12 11 10 9 7 4 6 6 4 9 8 10 11 8 8 8 8 6 6 9 7 5 5 5 7 8 13 14 15 12 10 10 11 11 13 13 16 16 16 17 20 23 22 20 16 13 13 10 10 10 12 11 9
14 17 14 10 8 6 3 5 6 5 5 2 7 9 10 9 6 8 9 12 12 7 7 5 10 15 12 14 13 13 15 13 11 15 17 14 17 15 18 22 25 21 17 19 18 17 16 13 10 13 14 12 10 9
10 18 15 10 7 7 3 4 5 5 5 6 3 6 8 8 10 12 12 11 10 7 11 15 19 20 17 15 12 14 16 15 17 19 20 17 16 17 18 24 27 24 24 22 20 21 16 13 14 14 14 12 10 8
12 15 14 11 6 4 5 6 4 3 4 5 5 6 7 8 10 12 9 13 10 15 16 16 15 14 13 13 13 13 15 18 16 15 16 16 15 16 20 27 25 27 28 24 23 18 17 12 12 14 13 11 10 8
10 14 9 7 6 6 4 5 6 6 4 3 4 4 5 5 6 7 7 12 16 15 13 12 11 13 12 12 13 14 13 13 14 14 13 12 11 13 19 25 29 31 31 28 19 18 16 14 15 14 14 13 10 9
11 9 5 6 6 3 3 5 6 4 5 6 4 4 4 4 5 5 6 13 12 8 8 8 7 7 9 11 9 10 10 9 11 11 10 10 11 18 19 21 26 25 32 29 28 24 17 18 17 16 15 13 12 10
3 4 4 4 5 3 4 3 5 4 4 5 4 4 3 5 3 4 3 1 5 7 6 4 6 8 8 9 8 8 9 8 8 8 7 6 7 7 13 15 24 28 29 30 25 22 21 18 17 16 17 15 13 11
2 5 6 6 6 5 4 3 3 5 3 4 5 2 3 3 3 2 3 3 2 2 1 3 5 8 10 10 12 11 10 8 7 6 6 6 10 10 11 19 28 31 26 17 22 21 21 20 18 17 17 16 16 12
2 3 5 5 3 4 4 7 5 4 3 2 1 3 3 3 2 3 2 1 1 1 4 6 8 10 12 12 12 11 11 8 6 4 4 6 10 8 6 19 31 22 21 24 18 19 21 20 19 18 17 16 15 14
5 3 7 7 8 7 4 4 3 3 2 0 3 2 0 1 3 1 2 1 3 5 6 7 7 6 7 7 7 5 3 2 2 2 8 11 10 9 8 12 25 14 14 16 17 18 19 18 19 18 17 16 15 13
5 5 6 8 9 6 8 5 4 1 2 1 2 3 3 3 2 1 1 2 5 5 5 4 2 3 4 5 3 2 5 7 8 7 4 7 10 9 12 13 12 10 11 13 17 17 17 18 19 19 17 16 14 12
8 10 7 7 9 6 7 8 3 4 3 5 5 6 5 3 3 2 2 4 5 5 4 1 1 4 5 6 8 7 6 5 4 3 3 6 6 7 13 12 10 8 10 13 12 18 21 21 19 18 16 16 15 14
3 9 10 12 10 11 13 10 10 11 11 9 7 9 7 2 1 2 1 4 4 4 4 1 3 5 6 5 5 5 4 3 2 2 3 1 2 9 14 13 10 9 11 14 14 15 18 21 20 19 19 20 18 17
9 8 7 6 7 8 11 10 11 12 8 7 8 5 4 4 3 1 1 4 4 3 5 3 2 4 5 6 7 4 5 2 1 3 5 4 4 8 12 12 10 9 9 11 13 14 16 19 21 21 21 20 19 18
10 9 8 6 4 5 10 7 6 5 7 3 1 1 2 2 2 2 2 3 3 4 4 2 1 1 4 5 6 8 9 4 5 6 6 8 11 15 13 11 11 9 9 10 10 10 11 12 15 16 17 17 17 17
Wind_Direction
313 318 319 320 320 319 314 310 296 288 268 270 278 279 274 269 205 80 350 66 144 54 122 108 101 102 210 295 307 55 246 190 221 245 266 170 248 153 268 302 296 272 260 236 263 263 214 4 248 329 355 332 1 32
310 313 314 316 315 314 306 303 291 266 253 244 249 251 246 244 211 172 95 104 129 101 125 135 121 104 66 1 311 235 329 308 357 221 216 174 189 202 236 234 168 225 347 317 332 45 46 34 28 356 325 298 10 44
305 309 309 311 310 308 299 289 288 250 237 228 234 237 234 232 215 192 209 161 136 154 144 164 145 98 64 26 1 296 174 165 210 281 323 142 231 232 223 225 244 153 191 211 178 120 72 42 42 33 28 90 83 85
302 304 307 307 307 306 295 276 274 239 223 216 222 226 223 220 214 196 188 201 175 192 252 147 161 149 98 57 35 32 169 164 148 197 251 253 227 232 196 20 265 43 176 173 106 134 117 65 40 41 54 76 97 96
299 302 305 305 304 303 291 268 259 226 211 205 214 218 210 209 206 191 187 190 193 185 294 141 170 162 139 96 61 63 106 193 211 210 224 177 107 225 205 260 224 189 91 207 123 131 98 79 45 49 64 74 88 113
297 302 304 301 304 311 280 250 246 211 199 197 206 209 198 199 186 155 207 226 191 178 214 205 142 171 167 139 95 73 63 57 238 268 113 133 85 265 255 245 108 161 125 81 122 136 118 115 79 73 79 77 86 110
299 300 305 304 298 306 259 232 222 194 187 191 198 196 199 195 182 189 257 197 190 176 196 221 190 188 187 199 216 247 43 52 345 144 207 199 171 268 278 238 149 155 140 132 128 129 137 166 119 95 107 102 111 123
294 304 312 311 296 261 250 261 190 178 180 185 188 187 176 178 181 192 205 185 182 174 183 246 133 184 195 215 202 211 269 206 53 118 176 223 178 271 245 224 178 166 159 155 145 147 134 145 134 112 104 134 134 134
302 306 317 319 305 230 223 212 174 175 176 176 173 155 147 168 182 204 208 212 195 185 220 229 209 165 173 199 200 188 254 231 154 209 182 230 94 231 225 195 188 181 180 174 168 160 160 176 187 192 204 205 193 170
303 304 313 321 4 214 203 176 174 171 171 169 158 161 182 188 190 176 195 185 187 213 224 248 183 151 196 180 181 220 233 343 259 99 178 214 240 239 213 198 189 188 188 177 177 180 181 162 153 151 158 170 182 196
296 294 308 309 82 134 178 173 167 166 166 160 187 184 180 161 152 185 193 202 184 212 204 221 203 160 189 218 152 246 60 40 250 120 269 236 262 189 190 185 182 183 182 185 192 186 181 170 161 149 143 134 128 125
314 288 261 239 201 166 162 167 169 170 176 187 176 142 147 182 199 209 194 185 222 214 171 189 183 181 149 171 211 184 229 200 256 128 248 255 217 172 180 185 184 185 190 192 195 194 192 192 198 202 203 208 208 197
313 266 234 230 199 173 173 178 179 177 170 161 184 179 186 171 204 210 191 197 209 180 169 162 153 153 137 189 153 200 216 217 124 226 238 234 131 183 190 192 195 194 195 196 199 207 215 222 229 235 240 236 235 248
309 278 223 221 189 176 175 180 180 175 171 200 180 262 218 189 228 207 216 206 162 178 164 168 148 164 147 182 167 220 100 204 240 227 237 189 197 201 196 200 202 206 207 208 211 216 224 230 227 221 224 228 229 238
285 337 225 191 181 176 174 174 178 184 201 228 216 227 215 236 231 222 220 209 186 167 158 152 154 184 156 161 208 162 195 235 227 235 220 195 201 203 203 204 209 210 212 214 217 222 216 210 211 217 200 193 194 209
259 264 251 211 193 174 167 154 162 182 244 240 236 245 224 239 228 203 199 201 168 168 170 175 149 194 190 202 186 205 218 223 203 203 241 214 216 211 211 209 211 211 211 211 210 206 204 205 207 202 194 201 222 231
226 217 191 158 149 165 170 176 216 225 233 230 236 236 254 290 268 185 188 199 175 177 187 181 185 187 137 208 214 201 221 234 207 230 272 250 239 234 228 211 205 201 198 196 194 193 193 191 190 195 207 219 225 219
217 195 192 193 200 181 177 176 188 235 240 239 243 248 225 242 247 218 200 190 180 201 213 213 173 199 208 203 212 204 232 268 275 280 287 272 260 243 230 214 205 196 190 188 188 186 182 181 188 201 203 194 167 151
200 207 196 192 188 179 190 208 212 255 236 246 247 250 247 252 241 230 205 203 201 201 211 206 233 231 240 247 263 275 278 270 276 297 293 279 255 244 228 212 202 191 190 184 181 183 189 185 189 195 185 167 168 169
218 201 194 194 186 184 223 210 203 246 257 241 239 244 237 244 235 227 225 215 207 212 215 224 242 256 254 264 269 271 283 295 289 287 283 264 256 239 234 217 201 183 190 182 182 180 176 178 181 176 175 178 180 177
207 187 188 195 198 210 251 226 224 242 263 244 244 239 243 226 236 226 218 197 196 219 229 237 247 258 269 277 276 277 277 279 276 276 278 279 246 239 235 204 192 188 193 190 181 176 179 181 175 175 182 182 185 192
180 184 182 184 192 212 253 230 247 254 245 261 255 240 251 234 230 219 207 206 233 232 234 254 262 267 271 276 279 275 277 281 279 273 271 263 242 228 200 194 193 194 179 190 173 184 177 180 178 183 187 189 192 200
165 169 164 180 194 205 251 212 228 214 234 219 209 227 222 220 221 180 224 229 242 242 239 246 253 268 273 281 287 286 281 276 275 274 271 262 246 217 196 197 201 188 180 185 174 183 174 195 188 187 189 187 195 205
150 170 169 183 200 224 215 224 218 231 218 217 227 238 224 211 178 220 239 237 236 222 229 239 247 262 282 281 281 290 290 286 284 279 268 250 233 226 220 209 203 189 190 176 174 185 196 192 191 186 190 195 200 207
155 182 184 212 202 220 234 226 215 217 242 213 235 238 187 196 212 222 237 254 229 222 211 226 256 267 268 281 296 303 292 286 291 288 268 232 217 192 201 199 185 179 174 172 182 191 195 192 191 195 198 202 204 208
212 192 194 197 186 212 216 246 224 222 254 236 218 190 191 215 234 172 166 112 168 181 251 283 278 274 275 281 290 295 291 284 281 273 252 212 198 196 198 177 174 178 171 180 186 194 195 196 197 198 201 203 207 211
248 195 206 220 258 265 242 247 247 256 227 270 330 202 210 221 114 17 6 32 339 298 309 305 293 284 283 286 281 282 281 280 257 251 231 188 160 149 185 185 174 166 177 177 190 194 197 201 201 202 204 205 206 212
238 238 225 197 212 224 276 279 232 230 241 122 262 242 248 29 80 14 345 322 307 314 316 314 309 304 298 289 294 286 295 295 282 228 154 156 169 174 160 185 184 181 180 197 198 199 203 203 203 203 202 203 205 209
224 212 222 236 228 223 217 229 260 192 230 327 322 331 19 8 329 323 338 352 342 333 332 339 353 31 54 73 96 96 118 113 120 138 132 156 161 166 168 171 180 190 197 198 202 195 204 205 202 200 200 203 207 211
231 211 224 220 221 224 222 209 252 235 280 303 298 293 299 318 310 114 43 353 342 333 329 315 157 135 117 115 108 109 112 122 129 121 124 166 192 184 177 175 179 189 190 186 193 197 196 195 198 200 205 208 214 219
216 202 225 237 241 237 237 243 245 255 270 276 270 280 293 252 199 242 317 339 346 348 355 323 190 178 175 156 138 124 117 134 154 153 158 135 215 191 190 190 197 194 189 192 197 196 199 200 206 211 217 222 226 227
200 213 216 221 242 234 223 236 239 243 239 245 255 232 197 191 156 47 327 17 15 4 6 50 182 202 192 195 195 183 152 131 272 277 261 258 221 178 176 179 178 176 178 188 198 207 210 212 220 225 227 227 228 226
193 195 217 261 245 206 193 199 214 231 224 235 210 88 107 124 67 86 22 65 74 47 46 49 90 184 216 202 212 218 222 245 285 265 258 224 195 187 187 189 187 186 191 193 199 203 207 213 215 216 217 218 218 219